Regional Weather Roundup
Issued by NWS

Home | Current Version | Previous Version | Graphics & Text | Print | Product List | Glossary On
Versions: 1 2 3 4 5 6 7 8 9 10 11 12 13 14 15 16 17 18 19 20 21 22 23 24 25 26 27 28 29 30 31 32 33 34 35 36 37 38 39 40 41 42 43 44 45 46 47 48 49 50
000
ASUS43 KMPX 271701
RWRMN
WEATHER ROUNDUP FOR MINNESOTA
NATIONAL WEATHER SERVICE TWIN CITIES/CHANHASSEN MN
1200 PM CDT FRI MAR 27 2015


NOTE: "FAIR" INDICATES FEW OR NO CLOUDS BELOW 12,000 FEET WITH NO
SIGNIFICANT WEATHER AND/OR OBSTRUCTIONS TO VISIBILITY. N/A MEANS
CURRENT SKY AND/OR WEATHER CONDITIONS ARE NOT AVAILABLE.

MNZ060>063-068>070-271800-
   Twin Cities Metro

CITY           SKY/WX    TMP DP  RH WIND       PRES   REMARKS
TWIN CITIES    MOSUNNY   29   1  30 CALM      30.26F
ST PAUL        SUNNY     30   1  29 VRB6      30.27F WCI  24
CRYSTAL        SUNNY     30   1  29 N6        30.26F WCI  24
BLAINE         MOSUNNY   28   3  34 CALM        N/A
LAKEVILLE      SUNNY     27   5  39 CALM      30.26F
EDEN PRAIRIE   SUNNY     29   4  34 VRB5      30.25F WCI  24
SOUTH ST PAUL  SUNNY     30   1  28 N6        30.26F WCI  24
LAKE ELMO      FAIR      30   7  37 N6        30.26F WCI  24
$$
MNZ001>005-007-008-013>017-022>024-027-028-271800-
   Northwest Minnesota

CITY           SKY/WX    TMP DP  RH WIND       PRES   REMARKS
BEMIDJI        SUNNY     27   4  36 S7        30.17F WCI  20
HALLOCK        CLOUDY    28  16  59 S12       30.16F WCI  18
ROSEAU         PTSUNNY   28  12  50 S13       30.17F WCI  18
WARROAD        PTSUNNY   28   9  43 S9        30.18F WCI  20
THIEF RVR FALL PTSUNNY   27  10  50 S12G17    30.17F WCI  16
CROOKSTON      PTSUNNY   30  10  43 SW15      30.19F WCI  19
FOSSTON        PTSUNNY   28   7  40 S12       30.17F WCI  18
DETROIT LAKES  MOSUNNY   28   9  43 S10       30.18F WCI  19
MOORHEAD       PTSUNNY   30   7  37 S9        30.19F WCI  22
PARK RAPIDS    SUNNY     29   3  33 CALM      30.17F
MAHNOMEN       FAIR      27   7  42 S12       30.18F WCI  17
$$
MNZ006-009>011-018-025>026-271800-
   North Central Minnesota

CITY           SKY/WX    TMP DP  RH WIND       PRES   REMARKS
BAUDETTE       SUNNY     27   7  42 VRB6      30.17F WCI  20
FLAG ISLAND    MOSUNNY   19  10  68 SE9       30.17F WCI   9
INTL FALLS     SUNNY     25   6  44 SE6       30.20F WCI  18
WASKISH        SUNNY     27   9  46 CALM      30.19F
BIG FORK       SUNNY     28   5  37 SW5       30.20F WCI  23
LONGVILLE      SUNNY     27   1  33 SW7       30.21F WCI  19
GRAND RAPIDS   SUNNY     25   1  36 CALM      30.21F
CRANE LAKE     SUNNY     23   0  36 SW5       30.24F WCI  17
ORR            SUNNY     25   0  33 CALM      30.18F
COOK           SUNNY     25   1  36 CALM      30.20F
WALKER         FAIR      26   0  33 SE5       30.20F WCI  20
$$
MNZ012-019>021-037-271800-
   Northeast Minnesota

CITY           SKY/WX    TMP DP  RH WIND       PRES   REMARKS
DULUTH         MOSUNNY   24   4  42 CALM      30.20F
ELY            SUNNY     23   0  36 SW6       30.20F WCI  16
HIBBING        SUNNY     25   1  35 CALM      30.20F
EVELETH        SUNNY     27   3  36 N3        30.21F
DULUTH HARBOR  SUNNY     27   7  43 CALM      30.28F
TWO HARBORS    SUNNY     28  14  54 E6        30.22F WCI  22
SILVER BAY     SUNNY     25   7  46 E3        30.22F
GRAND MARAIS     N/A     19   4  51 S6        30.29F WCI  11
G MARAIS ARPRT SUNNY     19 -13  23 S6        30.17F WCI  11
$$
MNZ029>031-032-039>041-046>048-054>057-064-271800-
   West Central Minnesota

CITY           SKY/WX    TMP DP  RH WIND       PRES   REMARKS
FERGUS FALLS   PTSUNNY   30   1  29 S10       30.23F WCI  21
WHEATON        MOSUNNY   27  12  54 S8        30.23F WCI  18
MORRIS         MOSUNNY   30  10  43 SW7       30.22F WCI  23
ALEXANDRIA     SUNNY     27   5  39 VRB5      30.21F WCI  22
ELBOW LAKE     FAIR      29   7  39 S9        30.21F WCI  21
WADENA         MOSUNNY   28   7  40 S6        30.19F WCI  22
GLENWOOD       SUNNY     28   7  40 S7        30.22F WCI  21
APPLETON       MOSUNNY   34   5  29 S5        30.23F WCI  30
BENSON         CLOUDY    30  10  43 SW7       30.23F WCI  23
ORTONVILLE     MOSUNNY   28   9  43 S7        30.22F WCI  21
MADISON        MOSUNNY   32   5  32 S7        30.22F WCI  26
WILLMAR        FAIR      28   9  43 SE6       30.25F WCI  22
$$
MNZ033>034-036-042>043-049>051-058-059-271800-
   Central Minnesota

CITY           SKY/WX    TMP DP  RH WIND       PRES   REMARKS
ST CLOUD       SUNNY     29   3  33 W5        30.25F WCI  24
SAUK CENTRE    FAIR      28   5  37 CALM      30.23F
PAYNESVILLE    SUNNY     24   6  44 S7        30.25F WCI  16
AITKIN         SUNNY     30   1  29 S3        30.21F
PINE RIVER     SUNNY     27   5  39 S6        30.24F WCI  20
BRAINERD       SUNNY     27   0  31 VRB5      30.23F WCI  22
STAPLES        SUNNY     28   1  31 W6        30.21F WCI  22
LONG PRAIRIE   FAIR      28   5  37 SE5       30.22F WCI  23
LITTLE FALLS   SUNNY     28   0  29 CALM      30.24F
LITCHFIELD     MOSUNNY   28   7  40 CALM      30.26F
MAPLE LAKE     SUNNY     29   6  37 CALM      30.26F
$$
MNZ037-044-045-052-053-271800-
   East Central Minnesota

CITY           SKY/WX    TMP DP  RH WIND       PRES   REMARKS
PRINCETON      SUNNY     30   1  29 CALM      30.25F
MORA           SUNNY     27   3  36 W6        30.26F WCI  20
CAMBRIDGE      SUNNY     28  10  47 CALM      30.24F
RUSH CITY      SUNNY     27   6  41 CALM      30.26F
MOOSE LAKE     SUNNY     28   5  37 CALM      30.22F
HINCKLEY       FAIR      28  10  47 SW7       30.25F WCI  21
CLOQUET        SUNNY     27  -2  28 CALM      30.21F
MCGREGOR       SUNNY     28   5  37 SE5       30.23F WCI  23
$$
MNZ071>073-080-081-089-090-097-098-271800-
   Southwest Minnesota

CITY           SKY/WX    TMP DP  RH WIND       PRES   REMARKS
MONTEVIDEO     MOSUNNY   34  12  40 S5        30.24F WCI  30
GRANITE FALLS  MOSUNNY   30  10  43 CALM      30.25F
CANBY          MOSUNNY   32   5  32 CALM      30.23F
MARSHALL       MOSUNNY   32   9  37 SW3       30.23F
REDWOOD FALLS  SUNNY     29  10  45 S3        30.25F
OLIVIA         SUNNY     28  12  50 SE7       30.24F WCI  21
PIPESTONE      PTSUNNY   30   5  34 SW6       30.19F WCI  24
WINDOM         MOSUNNY   30   7  37 CALM      30.22F
WORTHINGTON    MOSUNNY   28   7  40 CALM      30.22F
JACKSON        MOSUNNY   32   7  34 SE3       30.23F
TRACY          MOSUNNY   32  12  43 S5        30.23F WCI  27
SLAYTON        MOSUNNY   30   0  27 CALM      30.21F
$$
MNZ065>067-074>077-082>085-091>093-271800-
   South Central Minnesota

CITY           SKY/WX    TMP DP  RH WIND       PRES   REMARKS
MANKATO        SUNNY     27   3  36 CALM      30.27F
NEW ULM        MOSUNNY   28   5  37 CALM      30.26F
ST JAMES       SUNNY     30   9  40 CALM      30.26F
FAIRMONT       SUNNY     30   9  40 CALM      30.24F
GLENCOE        SUNNY     28   9  44 CALM      30.27S
FARIBAULT      SUNNY     28   5  37 CALM      30.26F
OWATONNA       SUNNY     25   7  46 CALM      30.24F
WASECA         SUNNY     27  10  50 CALM      30.27F
ALBERT LEA     SUNNY     27   9  46 N5        30.24F WCI  21
$$
MNZ078>079-086>088-094>096-271800-
   Southeast Minnesota

CITY           SKY/WX    TMP DP  RH WIND       PRES   REMARKS
ROCHESTER      SUNNY     24   9  52 CALM      30.24F
RED WING       SUNNY     28   0  29 E6        30.26F WCI  22
STANTON        SUNNY     27   4  38 CALM      30.25F
DODGE CENTER   SUNNY     25  10  54 SE3       30.23F
WINONA         SUNNY     30   9  40 CALM      30.27F
AUSTIN         SUNNY     25   9  50 SE3       30.24F
PRESTON        SUNNY     24   7  49 NW3       30.24F
$$
ABBREVIATIONS USED IN REMARKS
   TC - TEMPERATURES IN CELSIUS
  WCI - WIND CHILL INDEX
   HX - HEAT INDEX
  VSB - VISIBILITY
$$



USA.gov is the U.S. government's official web portal to all federal, state and local government web resources and services.